Time,TemperatureF,DewpointF,PressureIn,WindDirection,WindDirectionDegrees,WindSpeedMPH,WindSpeedGustMPH,Humidity,HourlyPrecipIn,Conditions,Clouds,dailyrainin,SolarRadiationWatts/m^2,SoftwareType,DateUTC
2014-12-17 00:03:00,36.3,34.5,30.20,West,268,3.0,0.0,93,0.00,,FEW070,0.00,0.00,VWS V15.00,2014-12-17 05:03:00,
2014-12-17 00:08:00,36.2,34.1,30.20,WSW,238,4.5,0.0,92,0.00,,FEW070,0.00,0.00,VWS V15.00,2014-12-17 05:08:00,
2014-12-17 00:13:00,36.2,34.1,30.20,WSW,250,4.5,0.0,92,0.00,,FEW070,0.00,0.00,VWS V15.00,2014-12-17 05:13:00,
2014-12-17 00:18:00,36.1,34.0,30.20,West,261,3.0,0.0,92,0.00,,FEW070,0.00,0.00,VWS V15.00,2014-12-17 05:18:00,
2014-12-17 00:23:00,36.0,33.9,30.20,West,264,1.5,0.0,92,0.00,,FEW070,0.00,0.00,VWS V15.00,2014-12-17 05:23:00,
2014-12-17 00:28:00,36.0,33.9,30.20,WSW,250,3.0,0.0,92,0.00,,FEW070,0.00,0.00,VWS V15.00,2014-12-17 05:28:00,
2014-12-17 00:33:00,36.0,33.9,30.20,WSW,256,3.0,0.0,92,0.00,,FEW070,0.00,0.00,VWS V15.00,2014-12-17 05:33:00,
2014-12-17 00:39:00,36.0,33.6,30.19,SW,236,12.0,0.0,91,0.00,,FEW070,0.00,0.00,VWS V15.00,2014-12-17 05:39:00,
2014-12-17 00:44:00,35.9,33.5,30.20,WNW,287,4.5,0.0,91,0.00,,FEW070,0.00,0.00,VWS V15.00,2014-12-17 05:44:00,
2014-12-17 00:49:00,35.9,33.5,30.20,WSW,254,3.0,0.0,91,0.00,,FEW070,0.00,0.00,VWS V15.00,2014-12-17 05:49:00,
2014-12-17 00:54:00,35.8,33.4,30.20,West,262,1.5,0.0,91,0.00,,FEW070,0.00,0.00,VWS V15.00,2014-12-17 05:54:00,
2014-12-17 00:59:00,35.7,33.3,30.20,West,267,1.5,0.0,91,0.00,,FEW070,0.00,0.00,VWS V15.00,2014-12-17 05:59:00,
2014-12-17 01:04:00,35.7,33.3,30.20,West,263,4.5,0.0,91,0.00,,FEW070,0.00,0.00,VWS V15.00,2014-12-17 06:04:00,
2014-12-17 01:09:00,35.6,33.2,30.21,West,271,7.5,0.0,91,0.00,,FEW070,0.00,0.00,VWS V15.00,2014-12-17 06:09:00,
2014-12-17 01:14:00,35.4,33.0,30.21,West,273,3.0,0.0,91,0.00,,FEW070,0.00,0.00,VWS V15.00,2014-12-17 06:14:00,
2014-12-17 01:19:00,35.2,32.8,30.21,WSW,252,3.0,0.0,91,0.00,,FEW070,0.00,0.00,VWS V15.00,2014-12-17 06:19:00,
2014-12-17 01:24:00,35.1,32.7,30.21,WSW,250,4.5,0.0,91,0.00,,FEW070,0.00,0.00,VWS V15.00,2014-12-17 06:24:00,
2014-12-17 01:29:00,35.0,32.6,30.21,WNW,296,4.5,0.0,91,0.00,,FEW070,0.00,0.00,VWS V15.00,2014-12-17 06:29:00,
2014-12-17 01:34:00,34.9,32.5,30.21,WNW,296,1.5,0.0,91,0.00,,FEW070,0.00,0.00,VWS V15.00,2014-12-17 06:34:00,
2014-12-17 01:39:00,34.8,32.5,30.21,West,279,4.5,0.0,91,0.00,,FEW070,0.00,0.00,VWS V15.00,2014-12-17 06:39:00,
2014-12-17 01:45:00,34.8,32.5,30.22,WSW,253,3.0,0.0,91,0.00,,FEW070,0.00,0.00,VWS V15.00,2014-12-17 06:45:00,
2014-12-17 01:50:00,34.7,32.3,30.22,WNW,282,1.5,0.0,91,0.00,,FEW070,0.00,0.00,VWS V15.00,2014-12-17 06:50:00,
2014-12-17 01:55:00,34.6,32.2,30.22,WNW,289,4.5,0.0,91,0.00,,FEW070,0.00,0.00,VWS V15.00,2014-12-17 06:55:00,
2014-12-17 02:00:00,34.6,32.2,30.22,WSW,249,0.0,0.0,91,0.00,,FEW070,0.00,0.00,VWS V15.00,2014-12-17 07:00:00,
2014-12-17 02:05:00,34.5,32.2,30.22,WSW,240,0.0,0.0,91,0.00,,FEW070,0.00,0.00,VWS V15.00,2014-12-17 07:05:00,
2014-12-17 02:10:00,34.6,32.2,30.22,WNW,282,6.0,0.0,91,0.00,,FEW070,0.00,0.00,VWS V15.00,2014-12-17 07:10:00,
2014-12-17 02:15:00,34.5,32.2,30.22,West,276,4.5,0.0,91,0.00,,FEW070,0.00,0.00,VWS V15.00,2014-12-17 07:15:00,
2014-12-17 02:20:00,34.4,32.0,30.22,SW,227,6.0,0.0,91,0.00,,FEW070,0.00,0.00,VWS V15.00,2014-12-17 07:20:00,
2014-12-17 02:25:00,34.4,32.0,30.22,WNW,288,7.5,0.0,91,0.00,,FEW070,0.00,0.00,VWS V15.00,2014-12-17 07:25:00,
2014-12-17 02:30:00,34.3,32.0,30.22,West,271,6.0,0.0,91,0.00,,FEW070,0.00,0.00,VWS V15.00,2014-12-17 07:30:00,
2014-12-17 02:35:00,34.2,31.9,30.23,WNW,284,3.0,0.0,91,0.00,,FEW070,0.00,0.00,VWS V15.00,2014-12-17 07:35:00,
2014-12-17 02:40:00,34.2,31.6,30.23,WSW,253,3.0,0.0,90,0.00,,FEW070,0.00,0.00,VWS V15.00,2014-12-17 07:40:00,
2014-12-17 02:46:00,34.1,31.8,30.23,West,279,3.0,0.0,91,0.00,,FEW070,0.00,0.00,VWS V15.00,2014-12-17 07:46:00,
2014-12-17 02:51:00,34.1,31.8,30.23,WNW,292,4.5,0.0,91,0.00,,FEW070,0.00,0.00,VWS V15.00,2014-12-17 07:51:00,
2014-12-17 02:56:00,34.0,31.6,30.23,West,271,4.5,0.0,91,0.00,,FEW070,0.00,0.00,VWS V15.00,2014-12-17 07:56:00,
2014-12-17 03:01:00,34.0,31.6,30.23,WSW,258,1.5,0.0,91,0.00,,FEW070,0.00,0.00,VWS V15.00,2014-12-17 08:01:00,
2014-12-17 03:06:00,33.9,31.6,30.24,West,269,3.0,0.0,91,0.00,,FEW070,0.00,0.00,VWS V15.00,2014-12-17 08:06:00,
2014-12-17 03:11:00,33.9,31.6,30.24,West,273,3.0,0.0,91,0.00,,FEW070,0.00,0.00,VWS V15.00,2014-12-17 08:11:00,
2014-12-17 03:16:00,33.9,31.6,30.24,WSW,247,1.5,0.0,91,0.00,,FEW070,0.00,0.00,VWS V15.00,2014-12-17 08:16:00,
2014-12-17 03:21:00,33.9,31.6,30.24,WSW,245,4.5,0.0,91,0.00,,FEW070,0.00,0.00,VWS V15.00,2014-12-17 08:21:00,
2014-12-17 03:26:00,33.9,31.6,30.24,West,267,3.0,0.0,91,0.00,,FEW070,0.00,0.00,VWS V15.00,2014-12-17 08:26:00,
2014-12-17 03:31:00,33.8,31.5,30.24,West,267,1.5,0.0,91,0.00,,FEW070,0.00,0.00,VWS V15.00,2014-12-17 08:31:00,
2014-12-17 03:36:00,33.8,31.5,30.24,WSW,247,1.5,0.0,91,0.00,,FEW070,0.00,0.00,VWS V15.00,2014-12-17 08:36:00,
2014-12-17 03:41:00,33.7,31.4,30.24,West,259,3.0,0.0,91,0.00,,FEW070,0.00,0.00,VWS V15.00,2014-12-17 08:41:00,
2014-12-17 03:46:00,33.7,31.4,30.24,West,265,1.5,0.0,91,0.00,,FEW070,0.00,0.00,VWS V15.00,2014-12-17 08:46:00,
2014-12-17 03:52:00,33.7,31.4,30.24,WNW,300,4.5,0.0,91,0.00,,FEW070,0.00,0.00,VWS V15.00,2014-12-17 08:52:00,
2014-12-17 03:57:00,33.7,31.4,30.24,West,264,3.0,0.0,91,0.00,,FEW070,0.00,0.00,VWS V15.00,2014-12-17 08:57:00,
2014-12-17 04:02:00,33.6,31.3,30.24,WSW,244,3.0,0.0,91,0.00,,FEW070,0.00,0.00,VWS V15.00,2014-12-17 09:02:00,
2014-12-17 04:07:00,33.6,31.0,30.24,WNW,289,16.5,0.0,90,0.00,,FEW070,0.00,0.00,VWS V15.00,2014-12-17 09:07:00,
2014-12-17 04:12:00,33.5,30.6,30.24,WSW,240,6.0,0.0,89,0.00,,FEW070,0.00,0.00,VWS V15.00,2014-12-17 09:12:00,
2014-12-17 04:17:00,33.4,30.5,30.25,WNW,295,6.0,0.0,89,0.00,,FEW070,0.00,0.00,VWS V15.00,2014-12-17 09:17:00,
2014-12-17 04:22:00,33.4,30.5,30.25,WNW,282,3.0,0.0,89,0.00,,FEW070,0.00,0.00,VWS V15.00,2014-12-17 09:22:00,
2014-12-17 04:27:00,33.3,30.1,30.25,NW,311,1.5,0.0,88,0.00,,FEW070,0.00,0.00,VWS V15.00,2014-12-17 09:27:00,
2014-12-17 04:32:00,33.3,30.1,30.25,NW,308,6.0,0.0,88,0.00,,FEW070,0.00,0.00,VWS V15.00,2014-12-17 09:32:00,
2014-12-17 04:37:00,33.3,30.1,30.24,West,273,3.0,0.0,88,0.00,,FEW070,0.00,0.00,VWS V15.00,2014-12-17 09:37:00,
2014-12-17 04:42:00,33.3,30.1,30.24,WNW,292,1.5,0.0,88,0.00,,FEW070,0.00,0.00,VWS V15.00,2014-12-17 09:42:00,
2014-12-17 04:47:00,33.3,30.1,30.25,West,264,9.0,0.0,88,0.00,,FEW070,0.00,0.00,VWS V15.00,2014-12-17 09:47:00,
2014-12-17 04:52:00,33.3,30.1,30.25,WNW,303,4.5,0.0,88,0.00,,FEW070,0.00,0.00,VWS V15.00,2014-12-17 09:52:00,
2014-12-17 04:58:00,33.4,30.5,30.25,West,265,4.5,0.0,89,0.00,,FEW070,0.00,0.00,VWS V15.00,2014-12-17 09:58:00,
2014-12-17 05:03:00,33.3,30.4,30.25,West,261,3.0,0.0,89,0.00,,FEW070,0.00,0.00,VWS V15.00,2014-12-17 10:03:00,
2014-12-17 05:08:00,33.3,30.4,30.25,West,265,4.5,0.0,89,0.00,,FEW070,0.00,0.00,VWS V15.00,2014-12-17 10:08:00,
2014-12-17 05:13:00,33.3,30.4,30.26,West,273,1.5,0.0,89,0.00,,FEW070,0.00,0.00,VWS V15.00,2014-12-17 10:13:00,
2014-12-17 05:18:00,33.3,30.4,30.26,West,264,3.0,0.0,89,0.00,,FEW070,0.00,0.00,VWS V15.00,2014-12-17 10:18:00,
2014-12-17 05:23:00,33.2,30.3,30.26,WNW,291,6.0,0.0,89,0.00,,FEW070,0.00,0.00,VWS V15.00,2014-12-17 10:23:00,
2014-12-17 05:28:00,33.2,30.3,30.27,SW,235,10.5,0.0,89,0.00,,FEW070,0.00,0.00,VWS V15.00,2014-12-17 10:28:00,
2014-12-17 05:33:00,33.0,30.1,30.27,WSW,249,4.5,0.0,89,0.00,,FEW070,0.00,0.00,VWS V15.00,2014-12-17 10:33:00,
2014-12-17 05:38:00,32.9,29.7,30.27,West,275,9.0,0.0,88,0.00,,FEW070,0.00,0.00,VWS V15.00,2014-12-17 10:38:00,
2014-12-17 05:43:00,32.9,29.7,30.27,West,263,3.0,0.0,88,0.00,,FEW070,0.00,0.00,VWS V15.00,2014-12-17 10:43:00,
2014-12-17 05:48:00,32.8,29.6,30.27,West,267,4.5,0.0,88,0.00,,FEW070,0.00,0.00,VWS V15.00,2014-12-17 10:48:00,
2014-12-17 05:53:00,32.8,29.4,30.27,West,279,0.0,0.0,87,0.00,,FEW070,0.00,0.00,VWS V15.00,2014-12-17 10:53:00,
2014-12-17 05:59:00,32.8,29.4,30.27,WNW,297,6.0,0.0,87,0.00,,FEW070,0.00,0.00,VWS V15.00,2014-12-17 10:59:00,
2014-12-17 06:04:00,32.8,29.4,30.28,West,277,4.5,0.0,87,0.00,,FEW070,0.00,0.00,VWS V15.00,2014-12-17 11:04:00,
2014-12-17 06:09:00,32.8,29.4,30.28,WNW,297,4.5,0.0,87,0.00,,FEW070,0.00,0.00,VWS V15.00,2014-12-17 11:09:00,
2014-12-17 06:14:00,32.8,29.4,30.28,West,265,1.5,0.0,87,0.00,,FEW070,0.00,0.00,VWS V15.00,2014-12-17 11:14:00,
2014-12-17 06:19:00,32.8,29.4,30.28,West,277,3.0,0.0,87,0.00,,FEW070,0.00,0.00,VWS V15.00,2014-12-17 11:19:00,
2014-12-17 06:24:00,32.7,29.3,30.28,WSW,244,0.0,0.0,87,0.00,,FEW070,0.00,0.00,VWS V15.00,2014-12-17 11:24:00,
2014-12-17 06:29:00,32.7,29.3,30.28,WSW,238,6.0,0.0,87,0.00,,FEW070,0.00,0.00,VWS V15.00,2014-12-17 11:29:00,
2014-12-17 06:34:00,32.7,29.3,30.28,WNW,289,0.0,0.0,87,0.00,,FEW070,0.00,0.00,VWS V15.00,2014-12-17 11:34:00,
2014-12-17 06:39:00,32.7,29.3,30.29,WNW,296,1.5,0.0,87,0.00,,FEW070,0.00,0.00,VWS V15.00,2014-12-17 11:39:00,
2014-12-17 06:44:00,32.7,29.3,30.29,WSW,251,1.5,0.0,87,0.00,,FEW070,0.00,0.00,VWS V15.00,2014-12-17 11:44:00,
2014-12-17 06:49:00,32.6,29.2,30.29,WSW,240,3.0,0.0,87,0.00,,FEW070,0.00,0.00,VWS V15.00,2014-12-17 11:49:00,
2014-12-17 06:55:00,32.6,29.2,30.29,WSW,244,3.0,0.0,87,0.00,,FEW070,0.00,0.00,VWS V15.00,2014-12-17 11:55:00,
2014-12-17 07:00:00,32.5,29.4,30.29,West,275,3.0,0.0,88,0.00,,FEW070,0.00,0.00,VWS V15.00,2014-12-17 12:00:00,
2014-12-17 07:05:00,32.4,29.2,30.29,WSW,253,3.0,0.0,88,0.00,,FEW070,0.00,0.00,VWS V15.00,2014-12-17 12:05:00,
2014-12-17 07:10:00,32.3,29.1,30.29,WSW,252,0.0,0.0,88,0.00,,FEW070,0.00,0.00,VWS V15.00,2014-12-17 12:10:00,
2014-12-17 07:15:00,32.3,29.1,30.29,WNW,294,0.0,0.0,88,0.00,,FEW070,0.00,0.00,VWS V15.00,2014-12-17 12:15:00,
2014-12-17 07:20:00,32.2,29.0,30.29,WNW,284,1.5,0.0,88,0.00,,FEW070,0.00,0.00,VWS V15.00,2014-12-17 12:20:00,
2014-12-17 07:25:00,32.1,29.0,30.30,WNW,294,6.0,0.0,88,0.00,,FEW070,0.00,0.00,VWS V15.00,2014-12-17 12:25:00,
2014-12-17 07:30:00,32.0,28.9,30.30,WSW,245,1.5,0.0,88,0.00,,FEW070,0.00,0.00,VWS V15.00,2014-12-17 12:30:00,
2014-12-17 07:35:00,31.9,28.5,30.30,West,275,3.0,0.0,87,0.00,,FEW070,0.00,0.00,VWS V15.00,2014-12-17 12:35:00,
2014-12-17 07:40:00,31.9,28.2,30.30,WNW,288,3.0,0.0,86,0.00,,FEW070,0.00,0.00,VWS V15.00,2014-12-17 12:40:00,
2014-12-17 07:45:00,31.9,28.2,30.30,West,277,4.5,0.0,86,0.00,,FEW070,0.00,0.00,VWS V15.00,2014-12-17 12:45:00,
2014-12-17 07:50:00,31.8,27.8,30.30,WNW,302,3.0,0.0,85,0.00,,FEW070,0.00,0.00,VWS V15.00,2014-12-17 12:50:00,
2014-12-17 07:56:00,31.8,27.8,30.30,West,271,3.0,0.0,85,0.00,,FEW070,0.00,0.00,VWS V15.00,2014-12-17 12:56:00,
2014-12-17 08:01:00,31.7,27.4,30.30,WNW,283,4.5,0.0,84,0.00,,FEW070,0.00,5.00,VWS V15.00,2014-12-17 13:01:00,
2014-12-17 08:06:00,31.6,27.3,30.30,WSW,254,3.0,0.0,84,0.00,,FEW070,0.00,5.00,VWS V15.00,2014-12-17 13:06:00,
2014-12-17 08:11:00,31.7,27.4,30.30,WNW,296,6.0,0.0,84,0.00,,FEW070,0.00,5.00,VWS V15.00,2014-12-17 13:11:00,
2014-12-17 08:16:00,31.6,27.6,30.31,WNW,290,3.0,0.0,85,0.00,,FEW070,0.00,7.00,VWS V15.00,2014-12-17 13:16:00,
2014-12-17 08:21:00,31.6,27.6,30.31,West,270,4.5,0.0,85,0.00,,FEW070,0.00,14.00,VWS V15.00,2014-12-17 13:21:00,
2014-12-17 08:26:00,31.6,27.6,30.31,West,272,6.0,0.0,85,0.00,,FEW070,0.00,16.00,VWS V15.00,2014-12-17 13:26:00,
2014-12-17 08:31:00,31.5,27.2,30.31,WSW,253,6.0,0.0,84,0.00,,FEW070,0.00,19.00,VWS V15.00,2014-12-17 13:31:00,
2014-12-17 08:36:00,31.5,27.2,30.31,West,281,4.5,0.0,84,0.00,,FEW070,0.00,19.00,VWS V15.00,2014-12-17 13:36:00,
2014-12-17 08:41:00,31.5,27.2,30.31,WSW,250,4.5,0.0,84,0.00,,FEW070,0.00,21.00,VWS V15.00,2014-12-17 13:41:00,
2014-12-17 08:46:00,31.5,27.2,30.32,WNW,296,3.0,0.0,84,0.00,,FEW070,0.00,23.00,VWS V15.00,2014-12-17 13:46:00,
2014-12-17 08:51:00,31.5,27.2,30.32,WNW,295,3.0,0.0,84,0.00,,FEW070,0.00,23.00,VWS V15.00,2014-12-17 13:51:00,
2014-12-17 08:56:00,31.5,27.2,30.32,West,275,0.0,0.0,84,0.00,,FEW070,0.00,21.00,VWS V15.00,2014-12-17 13:56:00,
2014-12-17 09:01:00,31.6,27.3,30.32,WSW,243,7.5,0.0,84,0.00,,FEW070,0.00,23.00,VWS V15.00,2014-12-17 14:01:00,
2014-12-17 09:07:00,31.6,27.3,30.32,West,269,0.0,0.0,84,0.00,,FEW070,0.00,30.00,VWS V15.00,2014-12-17 14:07:00,
2014-12-17 09:12:00,31.6,27.3,30.32,West,273,3.0,0.0,84,0.00,,FEW070,0.00,33.00,VWS V15.00,2014-12-17 14:12:00,
2014-12-17 09:17:00,31.6,27.3,30.32,WSW,257,1.5,0.0,84,0.00,,FEW070,0.00,35.00,VWS V15.00,2014-12-17 14:17:00,
2014-12-17 09:22:00,31.6,27.3,30.33,West,267,0.0,0.0,84,0.00,,FEW070,0.00,37.00,VWS V15.00,2014-12-17 14:22:00,
2014-12-17 09:27:00,31.6,27.3,30.33,WSW,254,6.0,0.0,84,0.00,,FEW070,0.00,39.00,VWS V15.00,2014-12-17 14:27:00,
2014-12-17 09:32:00,31.6,27.3,30.33,WSW,252,4.5,0.0,84,0.00,,FEW070,0.00,42.00,VWS V15.00,2014-12-17 14:32:00,
2014-12-17 09:37:00,31.6,27.3,30.33,West,260,1.5,0.0,84,0.00,,FEW070,0.00,44.00,VWS V15.00,2014-12-17 14:37:00,
2014-12-17 09:42:00,31.7,27.4,30.33,West,260,0.0,0.0,84,0.00,,FEW070,0.00,47.00,VWS V15.00,2014-12-17 14:42:00,
2014-12-17 09:48:00,31.7,27.4,30.33,SW,234,1.5,0.0,84,0.00,,FEW070,0.00,49.00,VWS V15.00,2014-12-17 14:48:00,
2014-12-17 09:53:00,31.8,27.5,30.33,SW,234,1.5,0.0,84,0.00,,FEW070,0.00,53.00,VWS V15.00,2014-12-17 14:53:00,
2014-12-17 09:58:00,31.8,27.5,30.34,WSW,240,7.5,0.0,84,0.00,,FEW070,0.00,56.00,VWS V15.00,2014-12-17 14:58:00,
2014-12-17 10:03:00,31.8,27.5,30.34,WSW,237,7.5,0.0,84,0.00,,FEW070,0.00,63.00,VWS V15.00,2014-12-17 15:03:00,
2014-12-17 10:08:00,31.7,27.1,30.34,West,263,3.0,0.0,83,0.00,,FEW070,0.00,69.00,VWS V15.00,2014-12-17 15:08:00,
2014-12-17 10:13:00,31.6,27.0,30.35,WSW,247,3.0,0.0,83,0.00,,FEW070,0.00,72.00,VWS V15.00,2014-12-17 15:13:00,
2014-12-17 10:18:00,31.5,27.2,30.35,WNW,282,6.0,0.0,84,0.00,,FEW070,0.00,76.00,VWS V15.00,2014-12-17 15:18:00,
2014-12-17 10:23:00,31.5,27.2,30.35,WSW,254,4.5,0.0,84,0.00,,FEW070,0.00,67.00,VWS V15.00,2014-12-17 15:23:00,
2014-12-17 10:28:00,31.4,27.1,30.35,West,263,3.0,0.0,84,0.00,,FEW070,0.00,70.00,VWS V15.00,2014-12-17 15:28:00,
2014-12-17 10:33:00,31.3,27.0,30.35,West,263,4.5,0.0,84,0.00,,FEW070,0.00,86.00,VWS V15.00,2014-12-17 15:33:00,
2014-12-17 10:38:00,31.3,27.0,30.35,West,274,6.0,0.0,84,0.00,,FEW070,0.00,97.00,VWS V15.00,2014-12-17 15:38:00,
2014-12-17 10:43:00,31.4,26.8,30.35,West,275,4.5,0.0,83,0.00,,FEW070,0.00,116.00,VWS V15.00,2014-12-17 15:43:00,
2014-12-17 10:49:00,31.5,27.2,30.35,NW,318,3.0,0.0,84,0.00,,FEW070,0.00,123.00,VWS V15.00,2014-12-17 15:49:00,
2014-12-17 10:54:00,31.7,27.1,30.35,WSW,257,3.0,0.0,83,0.00,,FEW070,0.00,111.00,VWS V15.00,2014-12-17 15:54:00,
2014-12-17 10:59:00,31.8,27.2,30.35,West,265,3.0,0.0,83,0.00,,FEW070,0.00,95.00,VWS V15.00,2014-12-17 15:59:00,
2014-12-17 11:04:00,31.7,27.1,30.35,NW,308,6.0,0.0,83,0.00,,FEW070,0.00,98.00,VWS V15.00,2014-12-17 16:04:00,
2014-12-17 11:09:00,31.8,27.2,30.35,WNW,283,1.5,0.0,83,0.00,,FEW070,0.00,91.00,VWS V15.00,2014-12-17 16:09:00,
2014-12-17 11:14:00,31.9,27.3,30.34,NW,308,4.5,0.0,83,0.00,,FEW070,0.00,95.00,VWS V15.00,2014-12-17 16:14:00,
2014-12-17 11:19:00,31.9,27.3,30.34,WNW,284,0.0,0.0,83,0.00,,FEW070,0.00,93.00,VWS V15.00,2014-12-17 16:19:00,
2014-12-17 11:24:00,32.0,27.4,30.34,WSW,254,4.5,0.0,83,0.00,,FEW070,0.00,100.00,VWS V15.00,2014-12-17 16:24:00,
2014-12-17 11:29:00,32.0,27.4,30.34,WSW,239,1.5,0.0,83,0.00,,FEW070,0.00,100.00,VWS V15.00,2014-12-17 16:29:00,
2014-12-17 11:34:00,32.1,27.8,30.34,West,269,1.5,0.0,84,0.00,,FEW070,0.00,100.00,VWS V15.00,2014-12-17 16:34:00,
2014-12-17 11:40:00,32.2,27.9,30.34,West,270,0.0,0.0,84,0.00,,FEW070,0.00,95.00,VWS V15.00,2014-12-17 16:40:00,
2014-12-17 11:45:00,32.2,27.9,30.34,SW,229,6.0,0.0,84,0.00,,FEW070,0.00,91.00,VWS V15.00,2014-12-17 16:45:00,
2014-12-17 11:50:00,32.1,27.8,30.33,West,277,3.0,0.0,84,0.00,,FEW070,0.00,86.00,VWS V15.00,2014-12-17 16:50:00,
2014-12-17 11:55:00,32.1,27.8,30.33,West,263,1.5,0.0,84,0.00,,FEW070,0.00,76.00,VWS V15.00,2014-12-17 16:55:00,
2014-12-17 12:00:00,32.2,27.9,30.33,WNW,288,1.5,0.0,84,0.00,,FEW070,0.00,77.00,VWS V15.00,2014-12-17 17:00:00,
2014-12-17 12:05:00,32.2,27.9,30.33,WNW,296,6.0,0.0,84,0.00,,FEW070,0.00,84.00,VWS V15.00,2014-12-17 17:05:00,
2014-12-17 12:10:00,32.3,28.0,30.33,WNW,294,0.0,0.0,84,0.00,,FEW070,0.00,84.00,VWS V15.00,2014-12-17 17:10:00,
2014-12-17 12:15:00,32.4,28.4,30.32,West,279,3.0,0.0,85,0.00,,FEW070,0.00,81.00,VWS V15.00,2014-12-17 17:15:00,
2014-12-17 12:20:00,32.5,28.5,30.32,SW,236,3.0,0.0,85,0.00,,FEW070,0.00,72.00,VWS V15.00,2014-12-17 17:20:00,
2014-12-17 12:25:00,32.5,28.5,30.31,West,277,1.5,0.0,85,0.00,,FEW070,0.00,77.00,VWS V15.00,2014-12-17 17:25:00,
2014-12-17 12:30:00,32.4,28.4,30.31,WSW,240,1.5,0.0,85,0.00,,FEW070,0.00,91.00,VWS V15.00,2014-12-17 17:30:00,
2014-12-17 12:35:00,32.5,28.5,30.31,SSW,192,7.5,0.0,85,0.00,,FEW070,0.00,69.00,VWS V15.00,2014-12-17 17:35:00,
2014-12-17 12:41:00,32.4,28.7,30.31,SW,219,3.0,0.0,86,0.00,,FEW070,0.00,60.00,VWS V15.00,2014-12-17 17:41:00,
2014-12-17 12:46:00,32.4,28.7,30.31,SW,227,4.5,0.0,86,0.00,,FEW070,0.00,54.00,VWS V15.00,2014-12-17 17:46:00,
2014-12-17 12:51:00,32.2,28.5,30.31,WSW,252,0.0,0.0,86,0.00,,FEW070,0.00,56.00,VWS V15.00,2014-12-17 17:51:00,
2014-12-17 12:56:00,32.1,28.4,30.31,West,273,6.0,0.0,86,0.00,,FEW070,0.00,84.00,VWS V15.00,2014-12-17 17:56:00,
2014-12-17 13:01:00,32.0,28.0,30.31,WSW,240,6.0,0.0,85,0.00,,FEW070,0.00,123.00,VWS V15.00,2014-12-17 18:01:00,
2014-12-17 13:06:00,31.9,27.9,30.31,WSW,242,6.0,0.0,85,0.00,,FEW070,0.00,134.00,VWS V15.00,2014-12-17 18:06:00,
2014-12-17 13:11:00,32.0,27.7,30.31,WSW,240,1.5,0.0,84,0.00,,FEW070,0.00,93.00,VWS V15.00,2014-12-17 18:11:00,
2014-12-17 13:16:00,32.3,28.3,30.30,WSW,256,0.0,0.0,85,0.00,,FEW070,0.00,74.00,VWS V15.00,2014-12-17 18:16:00,
2014-12-17 13:21:00,32.5,28.2,30.30,WSW,249,0.0,0.0,84,0.00,,FEW070,0.00,63.00,VWS V15.00,2014-12-17 18:21:00,
2014-12-17 13:26:00,32.6,28.3,30.30,WNW,300,6.0,0.0,84,0.00,,FEW070,0.00,65.00,VWS V15.00,2014-12-17 18:26:00,
2014-12-17 13:32:00,32.6,28.3,30.30,SSE,161,4.5,0.0,84,0.00,,FEW070,0.00,67.00,VWS V15.00,2014-12-17 18:32:00,
2014-12-17 13:37:00,32.6,28.3,30.29,West,260,3.0,0.0,84,0.00,,FEW070,0.00,76.00,VWS V15.00,2014-12-17 18:37:00,
2014-12-17 13:42:00,32.5,28.2,30.30,West,261,1.5,0.0,84,0.00,,FEW070,0.00,76.00,VWS V15.00,2014-12-17 18:42:00,
2014-12-17 13:47:00,32.4,28.1,30.30,WSW,252,3.0,0.0,84,0.00,,FEW070,0.00,76.00,VWS V15.00,2014-12-17 18:47:00,
2014-12-17 13:52:00,32.4,28.1,30.29,WSW,248,1.5,0.0,84,0.00,,FEW070,0.00,70.00,VWS V15.00,2014-12-17 18:52:00,
2014-12-17 13:57:00,32.3,28.0,30.29,SW,236,6.0,0.0,84,0.00,,FEW070,0.00,62.00,VWS V15.00,2014-12-17 18:57:00,
2014-12-17 14:02:00,32.2,27.9,30.29,WSW,245,0.0,0.0,84,0.00,,FEW070,0.00,58.00,VWS V15.00,2014-12-17 19:02:00,
2014-12-17 14:07:00,32.2,27.9,30.29,WSW,255,3.0,0.0,84,0.00,,FEW070,0.00,69.00,VWS V15.00,2014-12-17 19:07:00,
2014-12-17 14:12:00,32.1,27.8,30.29,WSW,255,1.5,0.0,84,0.00,,FEW070,0.00,74.00,VWS V15.00,2014-12-17 19:12:00,
2014-12-17 14:17:00,32.1,27.8,30.30,WSW,246,3.0,0.0,84,0.00,,FEW070,0.00,72.00,VWS V15.00,2014-12-17 19:17:00,
2014-12-17 14:22:00,32.1,27.8,30.29,WSW,238,3.0,0.0,84,0.00,,FEW070,0.00,63.00,VWS V15.00,2014-12-17 19:22:00,
2014-12-17 14:27:00,32.2,27.9,30.29,West,261,1.5,0.0,84,0.00,,FEW070,0.00,53.00,VWS V15.00,2014-12-17 19:27:00,
2014-12-17 14:33:00,32.2,27.9,30.29,SSW,213,1.5,0.0,84,0.00,,FEW070,0.00,54.00,VWS V15.00,2014-12-17 19:33:00,
2014-12-17 14:38:00,32.3,28.0,30.29,NW,307,4.5,0.0,84,0.00,,FEW070,0.00,67.00,VWS V15.00,2014-12-17 19:38:00,
2014-12-17 14:43:00,32.3,28.0,30.29,WSW,258,7.5,0.0,84,0.00,,FEW070,0.00,62.00,VWS V15.00,2014-12-17 19:43:00,
2014-12-17 14:48:00,32.3,28.0,30.29,WSW,254,7.5,0.0,84,0.00,,FEW070,0.00,74.00,VWS V15.00,2014-12-17 19:48:00,
2014-12-17 14:53:00,32.2,27.6,30.29,WNW,289,0.0,0.0,83,0.00,,FEW070,0.00,74.00,VWS V15.00,2014-12-17 19:53:00,
2014-12-17 14:58:00,32.2,27.6,30.29,West,270,1.5,0.0,83,0.00,,FEW070,0.00,76.00,VWS V15.00,2014-12-17 19:58:00,
2014-12-17 15:03:00,32.3,27.7,30.29,NW,306,0.0,0.0,83,0.00,,FEW070,0.00,77.00,VWS V15.00,2014-12-17 20:03:00,
2014-12-17 15:08:00,32.3,27.4,30.28,WNW,301,0.0,0.0,82,0.00,,FEW070,0.00,69.00,VWS V15.00,2014-12-17 20:08:00,
2014-12-17 15:13:00,32.4,27.5,30.29,WSW,240,1.5,0.0,82,0.00,,FEW070,0.00,63.00,VWS V15.00,2014-12-17 20:13:00,
2014-12-17 15:18:00,32.3,27.1,30.28,SW,227,4.5,0.0,81,0.00,,FEW070,0.00,63.00,VWS V15.00,2014-12-17 20:18:00,
2014-12-17 15:23:00,32.3,27.1,30.28,SW,223,1.5,0.0,81,0.00,,FEW070,0.00,63.00,VWS V15.00,2014-12-17 20:23:00,
2014-12-17 15:28:00,32.3,27.1,30.29,SW,236,4.5,0.0,81,0.00,,FEW070,0.00,49.00,VWS V15.00,2014-12-17 20:28:00,
2014-12-17 15:34:00,32.3,27.4,30.29,SW,236,1.5,0.0,82,0.00,,FEW070,0.00,46.00,VWS V15.00,2014-12-17 20:34:00,
2014-12-17 15:39:00,32.3,27.1,30.29,WSW,239,3.0,0.0,81,0.00,,FEW070,0.00,39.00,VWS V15.00,2014-12-17 20:39:00,
2014-12-17 15:44:00,32.3,27.4,30.29,SW,235,1.5,0.0,82,0.00,,FEW070,0.00,33.00,VWS V15.00,2014-12-17 20:44:00,
2014-12-17 15:49:00,32.3,27.4,30.28,SW,235,3.0,0.0,82,0.00,,FEW070,0.00,37.00,VWS V15.00,2014-12-17 20:49:00,
2014-12-17 15:54:00,32.3,27.4,30.29,WSW,242,1.5,0.0,82,0.00,,FEW070,0.00,33.00,VWS V15.00,2014-12-17 20:54:00,
2014-12-17 15:59:00,32.2,27.3,30.29,SW,231,4.5,0.0,82,0.00,,FEW070,0.00,30.00,VWS V15.00,2014-12-17 20:59:00,
2014-12-17 16:04:00,32.1,27.2,30.29,WSW,244,0.0,0.0,82,0.00,,FEW070,0.00,28.00,VWS V15.00,2014-12-17 21:04:00,
2014-12-17 16:09:00,32.0,27.1,30.29,SW,226,3.0,0.0,82,0.00,,FEW070,0.00,28.00,VWS V15.00,2014-12-17 21:09:00,
2014-12-17 16:14:00,31.9,27.0,30.29,West,263,1.5,0.0,82,0.00,,FEW070,0.00,26.00,VWS V15.00,2014-12-17 21:14:00,